Wind_Speed
6 4 4 3 2 2 1 1 1 1 1 1 2 4 6 9 11 15 19 22 22 18 13 10 8 7 7 8 8 8 7 6 5 4 3 3 4 5 4 4 4 4 4 3 4 6 10 12 11 13 15 16 17 18 19 20 20 20 19 19 20 21 22 22 22 22 21 21 20 20 20 19 18 19 21 22 22 24 24 25 27 30 31 29 29
7 4 3 3 2 1 1 2 2 1 1 0 2 3 6 10 14 19 21 21 18 13 9 7 7 6 6 6 7 7 6 5 6 6 5 4 4 4 4 6 6 4 5 4 5 7 9 11 10 10 11 11 13 14 16 17 15 15 15 15 16 16 16 16 16 17 16 16 16 17 17 15 15 17 19 23 22 22 23 22 22 23 23 23 27
6 4 3 2 1 0 1 2 2 0 0 2 2 4 8 12 17 20 20 18 14 9 6 6 7 7 7 6 7 7 6 5 6 8 7 7 6 5 5 8 8 7 7 5 6 10 11 11 9 9 10 9 10 12 13 14 14 13 12 12 13 13 13 13 14 15 15 15 16 16 16 15 16 16 19 26 26 24 23 22 21 20 18 20 22
6 5 4 2 1 0 0 1 1 1 2 3 3 7 11 15 18 19 17 14 10 7 6 7 7 8 8 8 8 7 8 7 7 7 7 8 7 7 6 8 8 6 6 5 7 8 7 9 8 9 11 10 11 11 11 12 12 11 11 11 12 12 12 13 14 14 14 14 16 15 14 13 14 16 18 24 28 25 23 21 19 17 16 17 17
7 6 4 2 1 1 1 2 2 2 3 3 5 10 13 16 18 16 13 9 6 7 7 7 7 7 7 7 7 7 7 8 9 9 8 9 9 8 7 7 7 5 5 6 6 5 7 9 8 8 9 10 11 11 12 12 12 11 10 11 11 12 12 13 14 14 15 16 16 14 12 13 14 16 17 21 28 26 22 20 16 13 14 17 17
7 5 4 2 2 2 2 3 2 2 3 5 8 12 14 15 14 12 10 7 6 7 6 7 7 6 6 6 7 7 8 10 11 11 9 10 10 9 7 7 7 6 7 7 6 7 8 8 8 8 8 10 11 11 12 13 13 12 11 11 12 12 11 13 14 15 18 17 15 12 12 14 14 16 18 20 25 27 23 19 15 11 13 16 17
7 5 5 4 3 3 3 2 1 4 6 8 11 13 13 12 10 9 7 7 6 6 5 6 7 7 6 6 7 9 9 11 12 12 10 9 9 9 7 6 7 6 5 6 7 8 8 8 8 7 8 9 10 10 11 14 14 12 11 11 12 12 12 13 15 16 17 15 13 13 13 14 15 17 19 18 21 26 22 18 15 12 13 16 16
7 5 6 5 3 2 1 2 4 7 10 11 12 11 9 8 8 8 7 7 6 5 5 5 6 8 8 6 6 8 9 11 13 14 13 10 9 9 8 7 7 7 5 7 7 7 8 7 8 7 8 9 9 10 11 12 12 13 12 10 11 12 13 14 15 16 15 13 12 13 13 13 15 16 16 19 22 22 20 18 15 12 14 18 18
7 6 5 4 3 2 2 4 7 9 12 12 11 7 4 5 6 7 7 8 6 5 6 5 7 7 7 6 4 6 8 9 11 11 12 12 8 7 8 7 7 8 6 7 7 6 6 6 8 8 9 12 12 11 10 11 11 13 12 11 11 12 14 14 14 14 13 11 12 12 12 14 16 14 15 21 21 17 16 18 16 15 17 19 18
7 6 5 4 3 2 3 6 9 11 11 10 7 3 1 4 6 5 7 7 5 5 5 3 5 6 5 6 5 6 7 7 7 5 7 8 7 6 7 7 7 8 7 6 6 6 7 9 11 13 14 14 13 11 10 10 11 12 11 11 12 12 13 14 13 13 12 12 12 13 13 17 16 13 17 21 18 15 16 18 17 17 18 20 20
7 6 5 3 1 2 4 7 9 10 9 7 5 3 3 4 6 6 7 7 5 4 3 2 2 5 4 5 6 5 6 7 7 5 5 6 6 6 6 7 8 9 8 8 8 9 11 13 15 16 13 10 10 9 9 9 10 12 13 13 13 12 13 14 13 12 12 13 13 14 15 17 16 14 19 20 17 17 18 18 18 18 18 21 23
7 6 3 1 4 5 6 7 9 9 7 5 5 4 5 6 7 6 7 8 4 4 4 3 1 3 3 4 4 4 4 5 6 5 3 4 4 4 5 8 11 11 11 11 12 13 13 16 15 12 7 8 9 7 9 8 7 10 12 14 14 13 14 13 12 12 14 13 15 16 16 17 16 17 21 21 18 18 18 19 18 18 18 19 22
5 5 2 2 6 8 8 8 8 6 3 4 5 4 4 5 6 6 8 8 4 4 4 4 2 3 2 2 3 3 3 4 4 3 3 4 5 7 9 12 13 13 14 14 16 16 16 15 11 8 7 8 8 6 8 7 5 6 7 12 13 12 14 14 12 13 14 14 16 16 17 18 17 21 23 21 20 19 19 19 19 19 19 19 20
4 3 1 2 6 8 8 7 5 2 3 4 4 4 4 5 4 6 8 6 4 5 4 5 6 5 2 2 2 1 1 3 5 5 6 7 8 11 12 12 14 15 15 15 15 14 13 10 7 8 7 8 7 6 7 6 6 7 7 10 11 11 13 13 13 14 15 15 16 17 17 17 18 24 23 22 21 20 20 20 20 20 20 20 20
3 1 1 0 3 4 5 5 2 2 3 4 4 4 3 4 5 6 6 5 5 5 4 5 6 5 3 2 3 1 2 5 6 7 9 10 10 12 13 13 13 12 12 12 10 8 7 7 7 7 7 8 8 7 8 7 8 9 10 12 12 12 12 11 13 15 15 15 16 17 17 16 20 25 22 21 21 20 20 21 21 22 22 22 21
1 1 2 1 0 2 2 2 1 2 3 4 3 4 4 4 6 5 5 6 7 6 6 6 7 6 5 6 7 6 7 8 8 8 10 11 11 12 13 11 9 7 7 6 7 7 6 6 7 7 7 8 9 9 10 10 11 12 13 14 14 15 15 13 13 14 14 15 16 16 16 16 21 23 21 20 20 21 21 21 22 22 23 23 23
2 3 2 2 1 1 1 1 0 2 3 5 4 4 5 4 5 5 5 7 7 7 7 7 7 7 7 8 9 9 9 9 9 8 9 10 11 10 9 8 7 6 6 7 7 8 7 7 7 8 9 10 11 11 12 12 14 15 16 16 16 16 16 14 11 12 14 14 15 15 15 17 22 21 20 21 20 21 21 21 22 22 23 23 23
2 2 3 3 0 1 2 1 1 2 3 5 6 5 5 2 3 4 5 8 8 8 7 7 8 8 8 9 9 10 9 9 8 8 8 9 9 8 7 7 7 7 7 8 10 10 9 10 10 10 11 11 12 12 13 14 15 16 16 16 15 15 15 12 10 11 13 12 14 14 14 18 21 21 20 21 21 22 22 22 23 23 23 23 23
1 3 6 5 2 1 2 1 2 3 3 3 4 4 4 3 3 4 7 9 8 7 8 8 9 8 8 9 9 10 10 10 9 8 8 9 8 7 8 8 8 9 10 11 12 12 12 12 12 12 12 12 12 12 13 14 15 15 15 14 14 14 12 10 9 12 11 11 13 13 14 19 21 20 21 22 22 23 24 24 24 24 24 23 23
3 3 5 6 3 1 3 2 2 4 4 3 4 3 4 5 4 5 7 8 8 7 8 8 8 8 9 10 10 11 12 12 10 9 9 10 9 8 9 10 10 11 12 13 13 12 12 12 11 11 12 12 12 13 14 15 14 14 14 14 14 13 10 9 11 11 10 11 12 12 15 20 21 21 22 22 23 23 24 24 23 23 23 23 23
3 3 6 7 4 2 4 3 3 4 3 3 4 3 5 6 4 6 7 8 9 8 9 8 8 9 10 11 12 12 11 11 10 9 9 10 10 11 11 12 12 12 12 13 13 12 12 11 12 13 12 12 13 14 15 18 17 16 14 14 14 10 9 11 12 11 10 11 11 13 17 20 21 22 23 23 24 24 24 24 23 21 21 22 22
0 1 5 7 4 2 3 3 3 3 2 3 3 3 5 5 3 4 5 8 10 10 9 8 8 8 9 10 11 11 9 10 10 9 9 10 10 11 11 11 12 12 12 12 12 12 11 11 12 13 13 14 15 12 12 15 18 18 17 15 11 8 11 13 12 10 10 11 11 14 19 20 21 22 23 23 24 24 24 23 22 21 21 21 21
1 1 3 6 3 2 2 3 3 2 2 2 2 2 3 3 2 3 4 8 10 10 8 7 6 5 7 8 9 11 9 10 11 11 12 11 12 13 12 13 13 13 13 13 14 13 12 13 14 14 14 15 13 10 9 10 13 16 15 12 9 10 12 12 11 10 10 12 13 16 19 21 22 23 24 23 23 24 24 23 22 21 21 21 22
1 1 1 4 3 2 2 2 3 2 2 2 2 1 2 2 2 3 4 6 8 8 7 6 6 6 7 7 8 10 8 8 11 12 12 9 9 12 13 13 12 13 13 12 12 13 14 13 15 16 14 12 11 11 11 10 11 12 12 10 10 11 12 11 11 11 12 13 14 18 21 22 22 24 25 23 23 24 23 23 22 21 22 22 23
2 1 0 3 3 2 3 2 2 2 2 1 1 1 1 2 1 2 4 5 6 5 5 6 8 9 7 6 7 8 7 6 8 9 8 7 7 8 9 9 8 10 11 10 9 12 12 11 13 14 12 12 11 12 12 12 12 12 11 11 11 12 12 12 13 13 13 14 16 20 21 21 23 25 27 24 23 24 23 23 23 22 22 23 24
1 0 1 2 2 1 3 3 2 2 1 1 0 1 2 2 1 2 4 4 5 5 5 4 7 9 7 6 6 7 6 6 7 8 8 8 8 8 7 8 8 9 11 10 10 12 11 11 12 12 13 12 12 13 12 13 13 12 12 12 11 12 12 12 13 14 15 15 17 20 20 21 23 25 28 25 23 24 24 23 23 22 22 23 24
1 1 1 2 1 2 3 4 2 2 1 1 1 1 1 1 0 2 3 4 4 4 4 4 6 9 9 8 7 6 6 6 7 8 8 8 8 9 8 9 9 9 10 10 10 11 11 11 12 12 12 13 13 13 13 13 13 13 13 12 12 12 12 13 13 14 15 16 17 20 22 22 22 26 27 23 23 25 25 24 24 23 23 23 24
2 1 1 1 1 2 3 4 3 3 2 1 1 1 1 1 1 2 3 5 4 3 3 5 6 8 9 9 8 6 5 6 7 7 8 8 8 9 8 9 9 9 10 10 11 11 11 11 12 13 12 13 13 13 13 13 13 13 12 12 13 13 13 13 13 14 15 16 17 19 23 22 22 25 24 22 24 25 25 25 24 24 24 24 25
2 2 0 1 1 2 4 5 4 3 3 1 1 1 1 1 1 1 3 5 4 2 4 5 5 6 8 8 8 8 6 6 7 7 7 8 8 9 9 9 9 10 10 10 11 12 12 12 13 13 13 13 13 13 14 13 13 13 12 12 13 13 13 13 13 14 14 16 18 18 21 23 23 22 21 22 24 24 25 26 25 24 24 24 26
3 2 0 0 1 1 3 4 4 3 2 1 1 2 1 1 1 0 3 4 3 4 5 5 5 5 7 8 9 9 8 7 8 8 8 8 8 9 9 9 9 10 11 11 12 13 12 13 14 14 14 14 13 13 14 13 13 13 12 13 13 13 13 13 13 14 15 16 18 19 20 22 23 21 22 23 23 24 25 26 26 25 24 25 27
4 1 1 1 1 1 1 2 2 2 1 1 2 2 1 2 2 1 2 3 2 4 4 3 5 5 6 8 8 9 9 9 8 8 8 8 8 9 9 10 10 11 12 11 12 13 13 13 14 14 14 15 14 13 14 14 13 13 13 13 13 13 13 13 13 14 15 16 18 19 20 21 21 22 23 24 23 24 26 26 26 26 25 25 27
2 1 2 2 1 2 2 2 2 1 1 2 2 2 2 3 2 1 1 3 3 3 2 3 4 5 7 7 7 8 8 9 9 9 8 8 9 9 10 10 11 12 12 13 13 13 13 13 14 14 14 15 14 14 14 14 14 13 13 13 12 13 13 13 13 14 15 16 17 18 19 20 20 22 23 23 23 25 26 26 27 27 26 25 26
3 3 2 1 1 3 3 3 2 2 2 2 3 3 4 3 3 1 1 3 3 2 2 3 3 5 7 7 7 8 8 8 9 9 9 9 9 9 10 10 12 12 13 14 14 14 14 14 15 14 15 15 14 14 15 14 14 14 14 13 12 13 13 13 13 14 15 16 16 18 19 19 20 21 21 21 23 26 27 27 26 26 27 26 26
4 4 2 0 1 3 4 3 2 2 2 3 4 4 4 4 2 1 2 3 2 2 2 3 3 5 5 6 7 7 7 7 8 8 8 9 9 10 10 11 12 13 13 14 14 15 15 16 16 16 16 16 15 15 16 16 16 15 15 13 12 12 12 12 12 13 14 15 16 17 18 19 20 20 19 21 22 24 26 27 26 26 27 26 27
4 5 3 2 3 3 3 3 2 2 1 2 4 4 4 3 2 1 2 3 2 1 2 3 3 4 5 6 7 7 7 7 7 8 8 9 9 10 11 11 12 13 13 14 14 15 16 16 17 17 17 16 15 16 16 17 18 17 16 14 12 12 12 12 12 13 14 15 16 17 17 18 20 20 19 21 22 23 26 26 27 27 26 26 27
2 3 3 2 3 3 3 3 2 1 1 1 3 3 3 3 1 0 2 3 2 1 2 3 3 3 5 5 6 7 7 8 8 8 8 9 10 10 10 12 12 13 13 14 14 15 16 17 17 17 18 18 17 16 17 19 19 18 16 14 13 12 13 12 13 13 14 15 16 17 17 18 19 19 20 21 20 21 24 26 27 27 25 26 27
1 2 2 2 2 3 3 4 3 2 2 1 2 2 2 2 1 1 1 2 2 1 1 2 3 3 4 4 5 6 7 8 8 9 9 8 9 9 10 12 12 13 14 14 14 14 15 16 17 17 17 18 18 17 18 21 20 18 17 16 14 13 12 12 13 13 14 16 17 17 18 18 19 21 22 22 20 20 23 24 26 25 24 25 27
2 1 1 1 2 3 3 4 4 4 2 1 2 2 2 2 2 2 1 2 2 1 1 2 2 3 3 4 4 5 7 7 8 9 9 8 9 9 10 11 12 13 13 13 13 15 15 15 17 18 17 17 18 18 19 21 20 19 19 17 15 14 12 12 12 12 14 16 16 17 18 18 20 22 23 24 21 19 22 23 24 24 23 24 27
5 1 1 1 2 3 3 4 4 5 4 2 2 3 4 3 2 2 2 1 2 2 2 1 2 3 3 4 5 5 6 7 7 8 8 8 8 9 10 10 12 14 13 12 13 15 16 16 16 17 18 17 17 17 19 21 20 20 21 18 15 13 11 11 11 12 14 15 16 17 18 19 21 22 23 23 22 21 21 22 23 24 22 23 28
6 3 1 1 2 2 3 3 3 4 4 2 2 3 4 3 3 3 3 2 2 2 2 1 1 3 3 4 5 5 5 6 7 8 8 8 8 8 10 10 11 12 13 14 15 16 16 17 16 16 17 17 16 17 19 20 19 20 21 19 15 12 10 9 10 12 14 14 15 16 18 20 20 22 22 20 21 22 22 21 20 21 20 22 30
6 5 1 1 2 2 2 2 1 2 3 4 4 4 4 4 4 3 3 3 2 2 3 2 2 3 3 4 4 5 5 5 6 7 8 9 9 9 10 11 10 11 12 13 15 15 15 15 16 17 16 17 17 16 20 21 19 21 21 19 14 11 8 7 9 13 14 13 14 16 19 19 19 20 21 20 21 21 23 23 19 19 20 23 31
4 6 4 1 2 2 2 1 1 1 2 3 5 5 5 5 4 4 3 3 2 2 2 3 2 3 4 4 4 4 5 6 7 7 8 9 9 10 11 11 10 11 12 12 13 15 15 15 16 18 16 16 17 16 20 22 21 22 22 19 14 11 6 4 12 17 13 12 14 16 18 17 17 20 20 21 22 21 23 24 21 20 21 24 31
3 5 5 2 1 2 2 1 1 1 2 3 3 5 6 6 5 4 4 2 3 3 2 3 3 3 4 4 4 4 4 6 7 7 9 8 9 10 10 11 11 11 12 13 14 14 16 16 16 17 16 16 16 15 18 21 22 23 21 19 16 14 8 8 19 21 12 12 15 16 16 16 18 21 20 20 22 22 23 24 23 22 21 24 30
1 3 5 3 0 2 1 1 1 1 2 2 2 3 4 4 4 3 3 2 2 3 3 4 4 3 4 4 4 4 4 5 6 6 8 9 9 9 10 11 11 11 11 12 14 14 15 17 16 16 16 16 15 15 17 18 20 21 22 21 17 14 12 17 26 21 13 16 16 15 17 17 20 21 19 19 20 21 23 25 26 23 21 23 28
0 2 3 3 1 1 1 0 0 1 2 2 2 2 2 3 2 2 2 2 2 3 3 3 4 4 4 3 4 5 5 5 6 6 7 8 9 9 9 10 11 11 10 11 12 13 14 16 15 15 15 15 15 15 16 17 17 18 19 21 17 15 18 24 26 19 15 18 17 17 19 19 21 20 17 18 20 20 21 25 27 25 22 22 26
1 1 2 3 2 1 1 1 0 1 2 2 1 1 2 2 2 2 2 3 3 3 4 4 4 4 4 4 4 5 5 6 6 6 8 8 9 9 10 10 10 10 11 11 12 12 13 15 15 14 13 14 14 14 16 16 16 15 15 16 14 15 20 24 24 22 22 19 16 18 19 20 22 19 17 18 19 20 20 24 28 26 24 22 24
2 2 1 2 3 2 1 1 0 1 2 2 2 1 2 2 3 3 4 4 4 4 5 5 4 4 5 4 5 5 5 6 6 6 7 8 8 9 10 10 9 10 11 11 11 12 12 14 14 13 13 12 12 13 16 16 16 15 15 14 13 13 16 18 19 21 24 23 21 20 20 22 22 18 17 17 19 20 20 23 27 27 25 22 22
4 2 2 2 3 3 2 1 1 1 2 2 3 2 2 2 3 3 4 4 5 5 5 6 5 5 5 5 5 5 5 6 6 6 7 8 8 8 8 9 9 10 10 10 11 11 11 13 13 12 12 11 11 12 14 15 16 16 16 15 14 14 14 15 15 16 19 21 23 21 22 24 21 17 16 17 18 19 20 23 26 28 26 22 22
4 3 2 2 3 4 3 2 2 2 2 2 3 2 2 2 2 3 3 3 4 5 5 5 5 6 5 5 4 4 5 5 6 7 8 7 7 7 7 8 9 9 9 9 10 10 11 12 12 11 10 10 10 11 12 14 15 16 17 16 15 15 15 15 15 16 16 17 20 22 24 25 24 21 18 18 19 19 20 22 24 28 28 23 22
5 4 3 2 2 3 4 3 3 2 2 2 3 3 2 2 2 3 3 3 4 5 5 4 5 6 5 4 4 3 4 5 7 8 7 6 6 7 7 8 9 9 9 9 10 10 11 11 10 10 10 10 9 9 11 12 14 15 16 16 15 16 17 17 17 17 15 15 18 23 25 25 25 23 19 17 18 19 21 22 22 27 28 24 22
6 5 4 3 2 2 3 3 3 2 2 2 2 2 2 2 2 3 3 2 3 4 4 4 4 5 4 3 4 4 4 5 7 7 5 5 6 6 7 7 8 10 10 10 11 11 10 9 9 10 10 9 9 9 10 12 13 15 16 14 14 15 17 18 17 15 14 15 19 23 24 24 23 23 21 16 15 17 19 21 22 26 28 26 23
Wind_Direction
105 100 102 102 92 90 54 0 332 325 346 16 318 307 315 318 324 327 326 326 328 331 339 346 354 360 5 14 24 25 24 22 8 349 324 314 317 321 321 317 317 271 258 273 282 283 277 278 286 290 287 289 291 291 293 294 294 297 299 297 295 292 292 293 295 295 292 292 294 298 296 291 288 288 285 286 291 291 288 284 280 275 273 273 272
110 108 101 98 93 102 337 338 306 317 345 340 282 311 319 315 322 324 325 327 331 337 346 357 5 14 17 28 38 34 35 31 28 31 28 14 352 352 357 353 350 319 311 312 301 310 315 319 317 310 305 310 317 319 316 312 309 309 308 307 305 301 302 303 307 309 305 305 308 311 307 303 305 306 300 299 304 303 297 290 286 283 280 275 269
114 113 98 99 112 180 357 319 270 74 270 243 270 315 313 314 320 323 327 330 334 344 359 15 20 31 35 39 43 46 55 54 44 41 41 32 22 22 37 35 23 15 11 5 354 355 357 353 348 342 338 343 344 339 331 326 324 321 321 321 319 318 320 318 321 321 320 317 311 310 309 314 315 310 306 304 308 312 308 299 291 289 287 282 279
117 116 108 114 126 95 73 220 217 157 218 256 299 309 312 317 322 325 331 332 338 -0 19 28 35 46 49 50 50 52 54 48 41 34 34 32 28 25 32 45 34 24 20 6 1 355 344 341 343 347 345 346 343 334 327 326 326 326 325 325 324 320 324 323 321 321 320 313 311 318 319 316 309 306 307 305 306 311 313 307 297 294 293 292 293
128 132 133 134 130 97 151 157 160 198 231 288 308 309 317 323 326 330 333 333 352 26 33 31 40 54 55 57 55 46 39 38 35 25 23 24 23 21 18 27 25 18 15 3 348 324 322 330 330 334 338 337 335 331 329 326 322 321 318 320 317 315 324 319 313 315 310 307 320 331 321 310 308 308 307 307 308 308 310 308 298 294 294 288 284
141 149 149 142 115 109 136 135 151 242 280 302 309 316 323 328 333 338 344 354 18 41 50 43 37 47 56 52 53 51 43 36 30 22 19 20 19 16 13 14 12 9 10 354 328 328 335 330 323 330 338 333 333 337 332 328 327 326 325 323 315 315 315 307 308 306 305 315 331 328 313 312 312 308 305 309 309 308 308 303 294 287 289 284 276
153 153 133 124 117 131 156 160 241 290 308 311 318 325 329 336 348 2 13 27 32 36 51 52 28 26 45 56 68 65 51 33 20 12 9 12 10 7 9 11 -0 359 3 338 327 339 343 341 340 342 339 330 334 341 331 329 337 336 333 329 323 320 309 312 316 310 320 332 331 320 317 318 315 314 312 311 306 309 312 305 288 274 288 288 279
153 134 115 127 143 165 208 271 297 308 314 317 325 331 338 353 12 28 35 42 36 27 40 35 5 18 39 56 73 51 29 17 11 4 359 357 355 356 2 9 350 342 349 336 333 338 340 343 344 342 334 327 324 328 328 329 336 335 334 334 332 331 327 331 322 323 345 342 325 324 324 322 322 325 317 307 309 316 320 315 296 281 294 290 280
135 117 118 137 162 203 275 298 309 314 315 317 324 328 345 22 39 37 34 43 41 25 35 20 353 13 33 33 30 17 14 9 6 357 354 353 354 355 350 355 341 332 335 331 329 327 322 311 320 323 314 316 313 312 320 326 336 336 334 336 333 335 337 330 320 335 348 331 328 330 325 324 328 331 312 308 320 327 323 321 311 292 286 279 279
121 117 132 156 182 224 286 302 310 317 318 321 327 333 12 46 54 29 18 39 56 39 34 20 356 9 21 25 20 19 23 9 354 346 358 357 354 351 342 340 334 331 323 318 310 298 299 294 301 304 303 316 322 316 310 328 343 329 326 334 331 332 330 320 328 345 333 323 331 325 323 324 329 327 308 314 329 331 323 321 315 297 279 270 274
124 125 139 180 240 297 306 313 317 321 322 329 349 29 53 50 42 13 1 18 56 60 14 300 349 7 8 25 21 17 23 9 354 355 14 9 359 357 354 343 331 328 317 312 302 289 297 301 301 304 309 329 337 328 317 334 342 323 328 329 323 326 322 324 340 340 323 326 326 322 325 323 327 317 308 320 326 327 324 318 315 308 292 277 272
131 126 120 342 323 306 307 317 317 317 323 350 22 44 54 42 25 359 351 0 35 64 3 324 301 337 359 20 13 12 22 6 352 358 11 10 5 352 335 323 319 315 308 305 303 298 301 304 307 314 331 341 330 331 330 330 328 327 335 326 323 330 326 337 349 329 322 327 322 324 323 320 324 308 308 322 321 321 319 313 313 309 303 291 279
121 113 97 330 307 301 302 306 305 309 347 20 28 37 36 29 17 343 341 354 33 53 21 17 18 352 357 345 354 27 40 1 335 320 313 311 307 311 308 307 309 306 302 298 301 303 305 308 319 338 346 339 323 322 333 321 305 312 329 329 331 334 328 336 343 323 321 323 320 324 319 321 319 301 307 320 318 318 314 311 310 306 304 300 291
113 116 155 288 298 305 297 292 303 318 35 23 10 16 13 16 3 335 339 359 42 49 36 24 27 30 23 299 332 44 47 344 323 308 309 310 305 309 307 303 303 301 299 297 300 303 309 323 343 350 344 343 332 322 332 329 314 300 307 323 328 330 323 325 329 321 320 319 319 321 317 321 311 299 310 318 315 314 310 308 306 304 302 298 295
127 152 139 35 300 327 306 295 320 7 37 24 12 8 3 6 355 348 355 18 37 40 38 19 14 28 42 21 20 29 339 337 329 319 312 315 317 314 312 310 307 302 299 301 313 321 334 351 352 348 345 347 344 338 337 334 327 315 310 314 316 317 313 317 322 319 318 316 319 318 317 321 305 300 314 318 314 313 309 306 304 302 299 296 293
108 87 69 51 54 38 330 294 292 6 30 28 26 17 20 8 2 16 16 22 36 28 14 3 4 23 36 24 17 13 359 348 342 330 316 320 325 317 315 318 319 321 328 333 349 358 356 352 348 347 346 348 349 344 336 330 326 323 322 319 314 312 313 316 316 318 318 315 317 316 320 317 300 304 318 317 315 315 310 307 303 301 299 297 293
80 87 49 19 74 123 195 226 286 25 20 18 28 38 48 16 2 33 18 18 33 21 6 -0 11 25 25 17 11 8 1 353 348 338 328 331 331 325 326 340 356 6 6 6 8 6 359 353 350 348 349 350 346 339 332 327 324 324 323 320 316 314 317 321 323 320 315 315 316 315 319 308 301 313 322 317 317 313 310 307 302 300 299 298 295
99 68 16 18 25 191 158 148 89 72 54 28 21 29 58 46 8 33 19 19 21 12 9 9 19 24 21 17 10 5 1 357 355 352 348 342 341 345 354 5 14 18 16 15 14 9 4 358 355 354 352 346 341 336 330 328 327 324 321 321 322 321 326 340 339 313 309 315 313 315 314 303 310 323 321 318 316 311 308 303 300 298 297 296 294
78 16 5 13 4 189 136 122 107 96 98 74 37 21 37 47 38 35 20 16 10 7 15 17 21 21 20 17 9 3 3 4 5 10 4 353 358 8 10 17 21 23 21 17 14 7 2 360 360 358 354 351 345 338 336 336 331 326 326 328 331 336 344 347 324 306 311 311 310 316 309 308 320 324 320 318 315 312 309 304 299 295 294 295 293
357 7 357 4 10 129 127 99 112 111 106 91 72 43 31 39 35 29 19 12 9 11 19 21 22 19 18 15 10 7 7 9 12 18 10 3 13 23 25 29 26 23 19 15 12 9 7 6 6 6 4 1 353 349 351 349 342 336 335 335 342 352 348 327 314 315 317 310 315 316 309 318 326 322 320 319 317 317 315 312 304 295 293 293 293
353 358 349 3 20 72 103 102 115 118 108 74 71 42 43 55 39 21 15 12 15 17 21 23 23 18 14 14 12 14 10 7 18 25 16 15 20 26 30 29 24 19 17 18 17 16 17 15 15 15 12 4 3 2 351 344 345 345 341 342 353 355 329 324 329 328 319 316 319 313 318 328 326 323 323 321 321 321 319 317 311 303 298 294 292
23 352 340 0 35 68 84 112 129 124 113 74 66 34 48 68 56 26 17 14 18 21 24 27 28 18 11 13 11 17 17 9 22 32 27 29 27 30 31 25 22 18 18 22 25 22 17 17 17 13 5 5 10 4 342 334 335 340 345 350 353 335 324 335 337 329 320 320 318 314 326 332 328 329 328 324 324 322 320 318 313 306 300 296 293
173 143 323 347 36 98 98 124 142 126 110 73 56 44 51 71 55 32 20 12 19 23 27 35 39 17 10 15 7 14 23 11 19 31 33 31 21 26 28 24 21 16 20 21 16 11 8 10 6 3 2 4 2 345 336 334 326 332 340 340 330 320 330 337 330 326 318 317 317 319 330 333 332 335 331 327 326 325 322 319 313 304 298 296 295
217 143 307 334 17 115 126 125 140 128 107 65 44 31 41 70 55 31 26 12 17 20 25 38 39 28 19 15 4 15 28 11 17 30 32 30 12 15 19 20 16 7 17 20 3 358 4 1 350 355 358 349 341 333 332 333 328 331 330 322 314 315 326 328 321 320 319 320 315 319 331 334 335 339 336 332 329 328 326 323 317 305 297 294 295
244 354 307 332 2 102 122 119 137 133 107 68 25 339 40 75 62 30 31 18 22 25 29 30 26 32 28 11 3 18 34 15 22 36 33 36 24 17 15 16 13 359 11 17 354 353 1 352 342 347 346 338 335 331 327 327 328 329 326 321 313 310 316 319 317 316 320 322 313 317 332 336 336 341 340 335 331 330 329 328 323 312 302 296 297
263 343 260 336 1 114 129 132 141 136 143 157 305 354 59 85 52 35 32 16 22 32 43 31 18 28 29 22 19 19 29 19 23 34 32 30 25 23 15 10 12 0 4 7 354 355 355 349 347 343 340 339 334 328 326 323 323 324 323 320 314 310 310 312 313 313 318 320 314 316 329 338 338 341 342 337 333 332 332 331 326 320 313 304 301
245 264 272 334 6 178 142 143 161 165 203 207 121 53 79 117 42 51 41 20 25 32 40 36 17 23 27 29 32 23 21 22 20 24 27 24 20 21 15 10 11 1 1 4 357 357 354 350 348 343 339 337 332 329 327 321 320 320 318 318 316 312 309 307 308 310 315 319 319 316 321 333 340 341 342 337 334 335 333 333 328 323 320 314 309
224 257 303 333 246 188 148 154 181 186 215 238 105 125 139 143 57 48 26 28 40 37 35 37 22 20 25 28 32 36 27 21 22 20 19 19 18 18 16 13 10 4 3 2 358 356 353 349 346 345 340 334 331 327 325 323 320 317 314 314 314 313 310 308 308 311 315 318 321 319 314 324 339 339 336 334 335 335 333 335 331 323 319 318 317
210 231 301 327 259 188 157 166 186 195 213 195 120 191 173 147 98 64 12 30 35 37 48 41 30 20 23 30 33 43 39 20 22 22 16 16 17 18 18 14 8 6 4 358 357 355 351 347 346 344 339 336 331 325 326 324 320 317 312 311 313 313 311 310 311 311 316 319 320 321 316 319 330 333 332 333 334 335 334 335 333 328 323 321 319
210 229 66 255 268 176 162 179 187 212 232 135 186 221 191 152 133 123 18 28 9 41 55 39 38 28 22 33 32 36 37 25 26 24 19 19 18 18 18 15 9 6 5 359 354 354 351 347 345 341 338 336 331 328 328 323 321 319 311 310 313 313 312 313 313 311 314 319 319 322 321 321 325 329 331 332 333 335 335 334 334 334 330 325 321
222 230 115 214 264 112 175 214 197 216 219 167 212 218 172 172 163 115 25 19 25 56 57 34 42 33 29 36 30 31 31 27 31 28 24 22 18 18 16 14 10 5 5 -0 353 352 350 345 344 342 338 336 332 330 330 326 323 320 314 312 312 313 316 314 313 312 313 317 320 322 324 325 326 329 330 330 332 334 335 335 334 334 333 329 325
218 204 184 225 206 145 201 240 222 192 141 178 210 189 172 173 149 117 23 21 60 76 58 39 40 30 38 39 28 29 28 24 28 27 25 21 17 17 12 9 8 3 359 356 352 351 349 344 344 343 340 339 335 332 332 329 325 323 318 312 311 314 316 315 314 313 312 316 321 323 326 326 326 329 329 328 332 334 334 334 333 332 332 331 330
207 225 221 231 138 174 204 210 191 134 116 151 163 163 166 157 144 135 27 40 68 82 61 45 35 32 38 38 31 26 26 23 22 24 21 16 14 12 8 5 3 1 354 352 353 351 350 347 345 344 342 341 339 337 336 333 328 325 321 314 312 313 312 314 315 312 314 317 320 324 326 325 326 328 327 328 334 336 333 333 334 332 331 332 336
201 236 249 253 192 207 209 202 172 126 121 124 130 152 155 150 151 117 29 52 78 76 59 40 32 41 34 33 33 25 24 24 18 20 18 13 11 7 7 3 360 -0 354 352 354 353 351 350 349 346 343 341 339 339 339 336 333 329 323 317 311 309 311 314 314 314 316 318 320 324 324 325 326 324 326 331 335 334 330 332 335 333 332 332 337
201 232 253 245 221 220 205 198 178 139 162 120 127 153 151 145 139 81 11 39 78 62 46 41 31 40 34 25 27 27 24 20 17 14 15 13 8 7 5 -0 359 359 355 354 355 354 351 350 350 348 346 343 339 339 340 338 335 331 326 320 311 306 307 310 312 315 317 319 321 323 324 326 325 323 328 332 332 331 329 332 337 335 334 332 336
219 241 262 253 226 223 199 188 188 161 204 167 141 152 150 147 149 136 0 23 56 38 23 41 34 30 32 18 16 26 22 18 16 11 15 13 6 8 2 358 2 358 356 357 355 354 352 350 351 348 346 344 341 338 339 339 336 332 328 322 315 305 303 307 309 314 318 321 322 323 324 325 324 325 330 331 331 332 331 335 338 337 335 333 338
304 249 259 253 224 225 201 185 194 192 203 202 164 163 171 171 191 273 350 5 19 30 3 27 30 26 24 10 11 18 15 15 12 10 14 10 4 5 -0 358 1 359 358 359 355 352 349 349 351 349 346 345 344 340 339 340 337 334 331 324 317 307 299 302 307 313 319 322 324 323 323 322 324 328 333 333 334 336 334 336 337 337 336 335 343
15 239 228 234 216 224 215 199 205 208 204 206 204 207 214 202 215 263 304 344 347 347 0 18 23 23 11 359 5 8 8 7 6 10 10 6 2 358 356 358 359 358 358 357 356 351 345 348 351 349 348 347 345 343 341 341 339 335 333 326 319 311 299 299 305 311 319 324 325 325 323 321 325 333 336 335 338 338 336 337 338 339 337 336 346
23 0 217 218 210 219 222 216 216 217 224 235 216 215 224 221 223 258 285 309 325 332 349 3 2 10 4 357 357 357 1 1 2 4 2 5 3 354 351 355 358 354 351 353 355 350 344 348 351 349 350 348 345 344 341 340 339 336 334 330 322 313 300 297 306 310 316 322 326 326 324 324 329 335 337 337 340 340 339 340 340 341 338 338 347
20 19 215 209 214 219 224 227 223 222 232 243 233 223 228 233 234 245 263 272 290 311 306 318 355 346 356 5 355 352 355 358 1 358 359 6 3 356 350 353 360 351 348 355 354 348 346 348 349 348 350 349 347 346 343 341 339 335 334 332 327 318 301 292 307 315 315 318 325 326 326 330 334 335 337 339 340 340 341 343 342 342 340 341 351
13 18 21 192 207 222 228 238 250 240 230 220 220 215 209 224 239 244 249 258 270 295 304 315 344 331 351 9 353 357 357 351 357 355 -0 5 359 357 351 352 359 350 352 358 353 349 347 347 348 349 350 349 348 347 345 345 342 339 338 335 332 326 311 297 317 325 319 318 324 325 328 334 335 336 339 341 342 341 344 347 345 344 343 347 355
4 12 20 101 203 222 239 268 313 285 260 235 229 219 204 209 221 236 243 251 271 287 302 298 310 331 342 356 351 357 359 352 352 354 359 359 356 358 353 352 353 350 354 355 352 352 349 349 350 349 349 349 348 346 348 350 347 343 340 338 339 338 328 307 328 332 326 324 330 327 331 336 336 341 344 344 347 346 347 349 348 347 345 351 359
356 7 16 32 204 216 237 276 299 278 279 271 249 230 219 211 203 211 219 224 269 284 289 285 301 333 332 339 344 344 355 356 348 352 355 349 350 356 352 350 349 350 353 351 352 354 352 351 350 349 349 349 348 348 351 353 350 346 344 344 342 339 338 329 334 338 335 333 334 331 335 341 340 344 348 346 348 346 346 351 351 350 349 353 0
351 6 8 15 275 234 249 260 248 268 274 276 259 236 232 224 211 214 218 214 250 281 302 297 296 311 321 329 331 330 342 346 341 348 348 342 346 350 349 348 347 349 351 351 351 352 352 351 348 349 349 348 348 349 352 354 355 353 351 348 341 339 342 337 335 337 340 339 339 341 342 345 345 346 347 345 346 345 344 351 354 352 351 353 359
275 344 357 8 0 268 268 250 216 273 280 289 284 251 243 243 251 269 286 289 276 285 303 296 286 292 301 311 318 324 330 332 334 340 339 338 342 344 346 346 344 345 348 351 350 347 351 350 348 351 349 348 347 348 351 353 358 358 355 352 347 342 338 336 334 331 335 339 340 341 341 345 347 345 344 342 345 346 344 350 353 353 353 353 357
220 303 350 8 12 326 272 266 224 300 309 321 320 281 255 249 259 264 265 278 283 286 289 281 273 272 281 301 313 314 321 325 328 335 334 334 338 340 343 343 342 342 342 346 344 342 349 348 347 350 348 347 347 349 351 351 355 356 355 355 348 337 330 333 335 329 330 336 338 335 335 343 347 344 343 342 344 347 345 348 352 352 354 354 356
219 262 313 356 18 25 344 302 315 332 332 339 338 308 270 256 247 241 241 255 271 280 286 288 282 271 281 306 319 318 323 325 325 330 328 326 331 337 341 342 342 340 338 340 338 338 345 345 345 349 347 346 348 351 351 351 353 352 351 349 344 338 331 331 333 328 327 330 333 332 331 342 349 346 344 344 346 347 346 349 353 353 353 356 357
212 238 277 321 15 27 22 344 323 336 338 343 341 317 274 265 258 255 258 264 270 275 286 296 298 295 300 309 316 322 321 319 320 320 320 324 329 337 342 341 339 337 335 335 334 335 339 341 343 347 348 347 348 350 349 350 351 348 347 347 344 343 338 334 330 327 322 319 323 327 331 340 348 348 346 347 346 347 348 348 353 354 353 356 357
209 226 262 301 -0 23 26 4 330 333 336 346 344 323 291 268 266 267 266 272 278 281 289 296 300 306 311 311 312 318 313 313 315 314 322 331 333 339 340 337 335 332 332 331 329 330 333 338 341 343 348 349 347 348 347 350 350 347 346 347 345 343 343 341 336 334 328 316 316 322 330 338 345 348 349 349 346 348 351 349 350 354 355 357 356
210 224 250 288 339 10 21 13 347 331 332 347 342 326 313 287 273 265 256 267 282 288 297 300 303 310 311 303 303 307 304 308 311 317 333 338 334 340 339 334 333 331 333 332 328 328 329 334 339 340 345 347 345 347 347 348 349 348 348 347 346 345 345 343 340 340 334 321 318 324 333 337 338 340 341 342 348 350 352 352 351 354 356 357 356
212 223 237 259 298 342 12 18 1 332 328 341 327 319 312 289 272 268 260 258 272 286 299 302 301 309 308 288 288 299 303 308 316 328 343 337 332 339 338 335 333 332 337 335 328 327 328 333 339 340 342 343 343 346 348 347 348 350 349 347 346 345 345 342 338 339 334 327 328 331 336 338 334 335 336 336 347 352 351 354 356 358 358 357 356
Height
1522 1522 1522 1522 1523 1522 1523 1522 1522 1522 1522 1521 1520 1520 1519 1519 1518 1518 1517 1516 1514 1513 1511 1510 1509 1508 1508 1507 1506 1506 1505 1504 1503 1503 1502 1502 1501 1501 1500 1500 1500 1500 1499 1499 1499 1498 1497 1497 1496 1496 1495 1494 1493 1493 1492 1491 1491 1490 1489 1488 1488 1487 1486 1485 1485 1484 1483 1482 1481 1481 1480 1479 1478 1477 1476 1475 1475 1474 1474 1473 1472 1472 1472 1473 1473
1523 1523 1522 1523 1523 1522 1522 1522 1522 1522 1521 1521 1520 1520 1519 1519 1518 1517 1516 1514 1513 1512 1511 1510 1509 1508 1508 1507 1506 1506 1505 1504 1503 1503 1502 1501 1501 1500 1500 1500 1499 1499 1499 1499 1499 1498 1497 1496 1496 1495 1494 1494 1493 1492 1491 1490 1490 1489 1488 1488 1487 1486 1485 1484 1484 1483 1482 1481 1480 1480 1479 1478 1477 1477 1475 1474 1474 1473 1472 1471 1471 1470 1470 1470 1469
1523 1523 1523 1523 1523 1522 1522 1522 1522 1521 1521 1520 1520 1520 1519 1518 1517 1516 1515 1513 1512 1512 1511 1509 1509 1508 1507 1507 1506 1505 1505 1504 1503 1503 1502 1501 1501 1500 1500 1500 1500 1499 1499 1499 1498 1498 1497 1497 1496 1495 1494 1494 1493 1493 1492 1491 1489 1489 1488 1487 1486 1486 1485 1484 1483 1482 1481 1480 1479 1478 1478 1478 1478 1477 1475 1472 1472 1472 1470 1470 1469 1469 1469 1468 1467
1523 1523 1523 1523 1523 1522 1522 1522 1522 1521 1521 1520 1520 1519 1518 1518 1516 1515 1514 1513 1512 1511 1510 1509 1509 1508 1507 1506 1506 1505 1505 1504 1504 1503 1502 1502 1501 1500 1500 1500 1500 1500 1500 1499 1499 1498 1498 1497 1496 1496 1495 1494 1494 1493 1492 1490 1489 1488 1488 1487 1486 1485 1484 1484 1483 1482 1480 1479 1478 1477 1478 1479 1478 1477 1475 1472 1470 1470 1469 1468 1467 1467 1467 1467 1466
1522 1523 1523 1522 1523 1522 1522 1521 1521 1521 1521 1520 1520 1519 1518 1517 1515 1514 1513 1512 1511 1511 1510 1509 1509 1508 1508 1507 1506 1506 1505 1505 1504 1503 1502 1502 1501 1501 1500 1500 1500 1500 1499 1499 1499 1498 1497 1497 1496 1495 1495 1494 1493 1492 1491 1489 1488 1488 1487 1486 1485 1484 1484 1483 1482 1480 1479 1478 1477 1477 1478 1478 1478 1476 1474 1471 1468 1468 1467 1466 1466 1466 1466 1465 1465
1523 1523 1523 1522 1523 1522 1522 1522 1522 1521 1521 1521 1520 1519 1518 1516 1515 1514 1513 1512 1511 1511 1511 1510 1509 1509 1508 1508 1507 1507 1506 1505 1504 1504 1503 1502 1501 1501 1500 1500 1500 1500 1499 1499 1498 1497 1497 1496 1495 1494 1494 1494 1492 1491 1490 1488 1487 1486 1486 1485 1484 1483 1483 1482 1480 1479 1478 1477 1477 1478 1478 1477 1476 1475 1473 1470 1467 1466 1466 1465 1464 1464 1464 1464 1464
1522 1523 1523 1523 1523 1522 1522 1522 1522 1521 1521 1521 1520 1518 1517 1516 1515 1514 1513 1512 1512 1511 1511 1511 1510 1509 1508 1508 1507 1507 1506 1505 1505 1504 1503 1502 1501 1501 1500 1500 1500 1499 1499 1498 1497 1497 1496 1495 1494 1494 1494 1493 1491 1490 1489 1488 1487 1486 1485 1484 1483 1482 1482 1480 1479 1478 1477 1477 1478 1478 1477 1476 1475 1473 1471 1469 1466 1464 1464 1463 1462 1462 1463 1462 1462
1522 1523 1523 1523 1523 1522 1522 1522 1522 1521 1521 1520 1519 1518 1517 1516 1515 1514 1513 1513 1513 1512 1512 1512 1511 1510 1509 1508 1507 1507 1506 1505 1505 1504 1503 1502 1501 1501 1500 1500 1500 1499 1498 1498 1497 1496 1495 1495 1494 1494 1493 1492 1491 1490 1489 1488 1487 1486 1484 1484 1483 1482 1481 1480 1479 1477 1476 1477 1478 1477 1476 1475 1473 1472 1470 1467 1465 1463 1463 1462 1461 1461 1462 1461 1460
1522 1523 1523 1523 1523 1523 1522 1522 1522 1521 1520 1520 1519 1518 1517 1516 1516 1515 1514 1514 1514 1513 1513 1512 1511 1510 1509 1508 1508 1507 1506 1506 1505 1504 1503 1502 1501 1501 1500 1500 1499 1498 1498 1497 1496 1496 1495 1494 1493 1492 1492 1491 1490 1489 1488 1487 1486 1485 1484 1483 1482 1481 1480 1480 1478 1477 1477 1478 1477 1476 1475 1473 1472 1472 1469 1465 1464 1463 1462 1461 1461 1460 1460 1459 1458
1523 1524 1524 1523 1523 1523 1522 1522 1522 1521 1520 1519 1519 1518 1517 1516 1516 1515 1514 1514 1514 1514 1513 1512 1511 1510 1509 1508 1508 1507 1507 1506 1505 1504 1503 1502 1502 1501 1500 1499 1499 1498 1497 1496 1496 1495 1494 1493 1492 1491 1491 1490 1489 1488 1487 1486 1486 1485 1484 1483 1482 1481 1480 1479 1477 1477 1478 1478 1477 1476 1474 1471 1471 1471 1468 1465 1463 1462 1461 1460 1460 1459 1458 1457 1456
1524 1524 1523 1523 1523 1523 1522 1522 1521 1520 1520 1519 1518 1517 1516 1516 1516 1515 1515 1514 1514 1514 1513 1512 1511 1510 1509 1509 1508 1507 1507 1506 1505 1504 1503 1503 1501 1501 1500 1499 1498 1497 1497 1496 1495 1494 1493 1492 1491 1490 1490 1490 1489 1487 1486 1486 1486 1485 1483 1482 1481 1480 1479 1478 1477 1478 1478 1477 1476 1475 1473 1472 1471 1470 1466 1464 1463 1461 1460 1459 1458 1457 1456 1455 1454
1524 1524 1523 1523 1523 1523 1522 1522 1521 1520 1520 1519 1518 1517 1517 1517 1516 1515 1515 1514 1513 1513 1513 1511 1511 1510 1509 1508 1508 1507 1506 1506 1505 1504 1503 1502 1501 1501 1500 1499 1498 1497 1496 1495 1494 1493 1492 1491 1490 1489 1489 1489 1488 1487 1486 1486 1485 1484 1483 1482 1481 1480 1479 1477 1477 1479 1478 1476 1476 1474 1473 1472 1471 1468 1465 1463 1462 1460 1459 1458 1457 1455 1454 1453 1453
1524 1524 1524 1524 1523 1522 1522 1522 1521 1520 1520 1519 1518 1518 1517 1517 1517 1516 1515 1514 1513 1513 1512 1511 1510 1509 1508 1508 1507 1507 1507 1506 1504 1504 1503 1502 1501 1500 1499 1498 1497 1496 1495 1494 1493 1492 1491 1490 1489 1489 1488 1488 1486 1486 1485 1485 1484 1483 1483 1482 1480 1480 1479 1477 1477 1478 1477 1476 1475 1473 1472 1471 1470 1466 1463 1462 1461 1459 1458 1456 1455 1454 1453 1452 1451
1525 1525 1525 1525 1524 1522 1521 1521 1521 1520 1519 1519 1518 1518 1518 1517 1516 1516 1515 1514 1513 1513 1512 1511 1510 1509 1508 1508 1507 1507 1506 1505 1504 1503 1502 1502 1501 1500 1499 1498 1497 1495 1494 1493 1492 1491 1491 1490 1489 1488 1488 1487 1486 1485 1485 1484 1483 1482 1482 1481 1480 1479 1478 1477 1477 1478 1477 1475 1474 1473 1471 1470 1468 1464 1462 1461 1459 1458 1456 1455 1454 1453 1452 1450 1449
1525 1526 1526 1525 1524 1523 1521 1521 1520 1520 1519 1519 1519 1518 1518 1517 1516 1515 1515 1514 1513 1512 1512 1511 1510 1509 1508 1508 1507 1507 1506 1505 1504 1503 1502 1501 1500 1499 1498 1497 1496 1494 1493 1492 1492 1491 1490 1489 1489 1488 1487 1487 1485 1485 1484 1483 1483 1482 1481 1480 1479 1478 1477 1477 1477 1477 1476 1474 1473 1471 1470 1469 1466 1462 1461 1459 1458 1456 1455 1454 1452 1451 1450 1448 1447
1525 1525 1525 1525 1524 1524 1522 1521 1520 1520 1520 1519 1519 1518 1518 1517 1516 1515 1514 1514 1513 1512 1512 1511 1510 1509 1508 1507 1507 1506 1505 1504 1503 1503 1501 1500 1499 1498 1497 1496 1495 1494 1493 1492 1491 1490 1490 1489 1488 1488 1487 1486 1485 1484 1484 1483 1482 1481 1480 1479 1478 1477 1475 1475 1476 1476 1475 1473 1472 1470 1469 1468 1464 1461 1460 1458 1456 1455 1453 1452 1450 1449 1447 1446 1445
1525 1525 1525 1524 1524 1524 1523 1522 1521 1520 1520 1520 1519 1518 1518 1517 1516 1515 1514 1513 1513 1512 1511 1510 1510 1508 1508 1507 1506 1506 1505 1504 1503 1502 1501 1499 1498 1497 1496 1495 1494 1493 1492 1491 1490 1490 1489 1489 1488 1487 1486 1485 1485 1484 1483 1482 1481 1480 1479 1478 1477 1475 1474 1473 1474 1475 1474 1473 1471 1469 1468 1466 1462 1460 1458 1456 1455 1453 1452 1450 1448 1447 1445 1444 1443
1525 1524 1524 1524 1523 1523 1523 1522 1521 1521 1521 1521 1520 1519 1518 1518 1517 1515 1514 1513 1513 1512 1511 1510 1509 1508 1508 1507 1507 1506 1505 1504 1503 1501 1500 1499 1498 1497 1496 1495 1493 1492 1492 1491 1490 1490 1489 1488 1487 1486 1486 1485 1484 1483 1482 1481 1480 1479 1478 1477 1475 1474 1473 1472 1473 1474 1472 1471 1470 1468 1467 1464 1460 1458 1457 1455 1453 1451 1450 1448 1446 1445 1443 1442 1440
1524 1524 1523 1523 1523 1522 1522 1522 1522 1522 1522 1522 1522 1520 1518 1517 1516 1515 1514 1513 1513 1512 1511 1510 1509 1509 1508 1508 1507 1506 1505 1503 1502 1501 1500 1499 1498 1497 1495 1494 1493 1492 1491 1491 1490 1489 1489 1488 1487 1486 1485 1484 1484 1483 1482 1481 1479 1478 1477 1476 1475 1473 1472 1472 1473 1472 1470 1470 1468 1466 1465 1462 1459 1457 1455 1453 1452 1450 1448 1446 1444 1442 1441 1439 1438
1523 1523 1523 1522 1522 1522 1522 1522 1522 1522 1522 1522 1522 1521 1518 1517 1516 1515 1514 1514 1513 1512 1511 1510 1510 1509 1508 1507 1507 1506 1504 1503 1502 1501 1500 1499 1498 1497 1495 1494 1493 1492 1492 1491 1490 1489 1489 1488 1487 1486 1485 1484 1483 1482 1481 1480 1479 1477 1476 1475 1473 1472 1472 1472 1471 1470 1469 1468 1466 1465 1463 1459 1458 1456 1454 1452 1449 1448 1446 1444 1442 1440 1438 1437 1436
1523 1523 1522 1522 1522 1521 1521 1522 1522 1522 1522 1521 1521 1520 1518 1518 1517 1516 1515 1514 1513 1512 1511 1511 1510 1509 1508 1507 1506 1506 1505 1503 1502 1501 1500 1499 1497 1496 1495 1494 1493 1492 1492 1491 1490 1490 1489 1488 1487 1486 1485 1485 1483 1482 1480 1479 1478 1477 1476 1474 1473 1473 1473 1471 1469 1468 1468 1466 1465 1463 1461 1458 1457 1454 1452 1450 1448 1446 1444 1442 1439 1437 1436 1435 1434
1524 1524 1522 1521 1522 1521 1522 1522 1522 1522 1522 1521 1521 1520 1518 1519 1518 1517 1516 1514 1513 1512 1512 1511 1510 1509 1509 1508 1507 1506 1505 1504 1502 1501 1500 1499 1497 1496 1495 1494 1493 1493 1492 1491 1491 1490 1489 1488 1487 1487 1486 1485 1483 1483 1483 1481 1478 1476 1475 1473 1473 1473 1472 1469 1468 1468 1467 1465 1464 1461 1459 1457 1455 1453 1451 1448 1446 1444 1442 1439 1437 1435 1434 1433 1431
1525 1524 1523 1521 1521 1522 1522 1522 1522 1521 1521 1521 1520 1520 1519 1519 1519 1518 1516 1515 1514 1513 1512 1511 1511 1510 1509 1508 1507 1506 1505 1504 1502 1501 1499 1499 1498 1496 1496 1495 1494 1493 1492 1491 1491 1490 1490 1488 1487 1487 1486 1485 1485 1485 1484 1482 1480 1477 1475 1474 1474 1473 1470 1469 1468 1467 1466 1464 1462 1460 1458 1456 1454 1452 1449 1446 1444 1442 1440 1437 1435 1434 1432 1430 1429
1524 1524 1523 1521 1521 1521 1521 1521 1521 1521 1521 1521 1521 1520 1519 1519 1519 1518 1517 1516 1515 1514 1512 1512 1511 1510 1510 1509 1508 1506 1505 1504 1502 1501 1501 1501 1500 1498 1497 1496 1495 1494 1493 1493 1493 1491 1490 1489 1488 1487 1486 1486 1486 1485 1483 1482 1480 1478 1477 1475 1474 1472 1470 1469 1468 1467 1466 1464 1462 1459 1457 1455 1452 1450 1447 1445 1443 1441 1438 1435 1433 1432 1430 1428 1427
1523 1523 1523 1521 1520 1520 1521 1521 1521 1521 1522 1521 1521 1520 1519 1519 1519 1518 1517 1516 1515 1514 1513 1512 1511 1510 1510 1510 1508 1506 1506 1506 1504 1503 1503 1502 1501 1500 1499 1498 1497 1496 1494 1494 1494 1492 1491 1491 1490 1488 1487 1486 1485 1484 1482 1481 1480 1478 1477 1475 1474 1472 1470 1470 1468 1466 1465 1464 1462 1458 1455 1454 1451 1449 1446 1443 1441 1439 1436 1434 1432 1430 1428 1426 1424
1522 1522 1522 1521 1520 1520 1520 1521 1521 1521 1521 1521 1521 1519 1519 1519 1519 1518 1517 1517 1515 1515 1514 1513 1512 1510 1510 1509 1508 1507 1507 1506 1504 1503 1503 1502 1501 1501 1500 1499 1498 1497 1495 1495 1494 1492 1492 1491 1490 1488 1487 1486 1485 1483 1482 1480 1479 1477 1476 1475 1473 1472 1470 1469 1468 1466 1465 1463 1461 1457 1454 1452 1450 1447 1445 1442 1440 1438 1435 1432 1430 1428 1426 1424 1422
1522 1522 1521 1520 1520 1519 1519 1521 1521 1521 1520 1520 1520 1519 1519 1519 1518 1518 1517 1517 1516 1515 1514 1513 1512 1510 1509 1509 1508 1508 1507 1506 1505 1504 1503 1502 1502 1501 1500 1499 1498 1497 1495 1495 1494 1492 1492 1490 1489 1488 1487 1485 1484 1483 1481 1480 1478 1477 1475 1474 1473 1471 1469 1468 1467 1466 1464 1462 1460 1457 1454 1451 1449 1446 1443 1441 1439 1436 1433 1431 1429 1426 1424 1422 1420
1522 1521 1520 1520 1519 1519 1519 1520 1521 1520 1520 1519 1519 1520 1519 1519 1518 1518 1517 1516 1516 1515 1514 1513 1512 1511 1510 1509 1508 1508 1508 1507 1506 1505 1504 1503 1502 1501 1500 1499 1498 1497 1496 1495 1494 1492 1491 1490 1489 1488 1487 1485 1484 1482 1481 1479 1478 1476 1475 1473 1472 1470 1469 1467 1466 1465 1463 1461 1459 1457 1453 1450 1448 1445 1442 1440 1438 1435 1432 1429 1427 1425 1422 1420 1418
1521 1520 1520 1520 1519 1518 1518 1519 1519 1519 1519 1518 1519 1519 1519 1519 1519 1518 1517 1516 1516 1515 1514 1513 1513 1512 1510 1509 1508 1508 1508 1507 1506 1505 1504 1503 1502 1501 1500 1499 1498 1497 1496 1495 1493 1492 1491 1490 1489 1487 1486 1485 1483 1482 1480 1478 1477 1476 1474 1472 1471 1469 1468 1467 1466 1464 1462 1460 1458 1456 1453 1450 1447 1444 1441 1439 1437 1434 1431 1428 1425 1423 1421 1418 1416
1520 1520 1520 1520 1519 1518 1518 1518 1518 1518 1518 1518 1519 1519 1519 1519 1519 1518 1517 1516 1516 1514 1514 1514 1514 1513 1511 1510 1509 1508 1507 1507 1506 1505 1504 1503 1502 1501 1500 1499 1499 1497 1496 1495 1494 1492 1491 1490 1489 1487 1486 1484 1483 1481 1479 1478 1476 1475 1474 1472 1470 1468 1467 1466 1465 1463 1462 1460 1457 1455 1453 1450 1447 1444 1441 1439 1436 1433 1431 1427 1424 1421 1419 1417 1413
1519 1519 1519 1519 1518 1518 1518 1518 1518 1518 1517 1518 1518 1518 1518 1519 1519 1518 1518 1517 1515 1515 1515 1515 1514 1513 1511 1511 1510 1509 1508 1507 1506 1505 1505 1504 1503 1502 1501 1500 1499 1498 1497 1496 1495 1493 1492 1491 1489 1487 1486 1484 1482 1481 1479 1477 1476 1475 1473 1471 1469 1468 1467 1465 1464 1463 1461 1459 1457 1455 1452 1450 1447 1444 1442 1439 1436 1433 1430 1426 1423 1420 1417 1415 1411
1519 1519 1519 1519 1518 1518 1518 1518 1517 1517 1517 1517 1518 1518 1518 1518 1518 1519 1518 1517 1515 1516 1516 1515 1514 1513 1511 1511 1511 1509 1509 1507 1506 1506 1505 1504 1503 1502 1501 1500 1499 1498 1497 1496 1495 1493 1492 1491 1489 1487 1485 1484 1482 1481 1479 1477 1475 1474 1472 1470 1469 1467 1466 1465 1463 1462 1460 1458 1456 1454 1451 1449 1447 1444 1442 1438 1435 1432 1429 1425 1422 1418 1415 1412 1410
1519 1519 1518 1518 1517 1518 1518 1517 1517 1517 1517 1517 1517 1518 1518 1518 1519 1519 1518 1517 1516 1516 1516 1515 1514 1513 1512 1512 1511 1510 1509 1508 1507 1506 1506 1505 1504 1503 1502 1501 1500 1499 1498 1496 1495 1494 1492 1491 1489 1487 1485 1483 1482 1481 1478 1477 1475 1473 1471 1470 1468 1467 1466 1464 1463 1461 1459 1457 1455 1453 1451 1449 1446 1444 1441 1437 1434 1431 1428 1424 1420 1417 1413 1410 1407
1520 1519 1518 1517 1517 1517 1517 1517 1517 1517 1517 1517 1517 1518 1518 1519 1519 1518 1518 1517 1517 1517 1516 1515 1514 1514 1513 1512 1511 1510 1509 1509 1508 1507 1506 1506 1505 1504 1503 1502 1501 1500 1498 1497 1496 1494 1492 1491 1489 1487 1486 1484 1482 1480 1478 1476 1474 1472 1471 1469 1467 1466 1465 1463 1462 1460 1458 1456 1455 1453 1450 1448 1445 1443 1440 1436 1434 1431 1427 1423 1419 1415 1412 1408 1405
1519 1518 1517 1517 1517 1517 1516 1517 1517 1517 1517 1517 1517 1518 1518 1519 1519 1519 1518 1517 1517 1517 1516 1516 1515 1514 1514 1513 1511 1510 1510 1509 1508 1507 1507 1506 1506 1505 1504 1502 1501 1500 1499 1497 1496 1495 1493 1491 1489 1488 1486 1484 1482 1480 1478 1476 1474 1472 1470 1468 1466 1465 1464 1462 1461 1459 1458 1456 1454 1452 1450 1447 1445 1442 1439 1436 1433 1430 1426 1422 1418 1414 1411 1408 1404
1518 1517 1517 1517 1516 1516 1516 1517 1517 1518 1518 1517 1517 1518 1518 1519 1519 1519 1518 1517 1517 1517 1516 1516 1516 1515 1514 1513 1512 1511 1510 1509 1508 1508 1507 1507 1506 1505 1504 1503 1501 1500 1499 1497 1496 1495 1493 1491 1490 1488 1486 1484 1482 1480 1478 1476 1473 1471 1469 1467 1466 1464 1463 1461 1460 1459 1457 1455 1453 1451 1449 1446 1444 1441 1438 1435 1432 1429 1425 1421 1417 1414 1410 1407 1402
1517 1517 1517 1516 1516 1516 1516 1516 1517 1518 1518 1517 1518 1518 1518 1519 1519 1519 1518 1517 1517 1517 1516 1516 1516 1515 1515 1514 1512 1511 1511 1510 1509 1508 1508 1507 1507 1506 1504 1503 1501 1500 1499 1498 1497 1495 1493 1491 1490 1488 1486 1484 1483 1481 1478 1476 1473 1471 1469 1467 1465 1463 1462 1461 1459 1458 1456 1454 1452 1450 1448 1445 1443 1439 1437 1434 1431 1428 1424 1420 1416 1413 1409 1406 1401
1516 1516 1516 1516 1516 1516 1515 1516 1517 1517 1517 1517 1518 1518 1518 1519 1519 1518 1518 1517 1517 1516 1516 1516 1516 1515 1514 1514 1512 1512 1511 1510 1510 1509 1508 1507 1507 1506 1504 1503 1502 1501 1499 1498 1497 1495 1493 1492 1490 1488 1486 1485 1483 1481 1478 1475 1473 1471 1468 1466 1464 1462 1461 1460 1459 1457 1455 1454 1452 1449 1447 1444 1441 1438 1436 1433 1430 1427 1424 1419 1415 1412 1408 1404 1400
1516 1515 1515 1515 1515 1515 1515 1516 1516 1516 1517 1517 1517 1518 1518 1518 1519 1518 1518 1517 1517 1516 1516 1516 1515 1515 1514 1514 1513 1512 1511 1511 1510 1509 1508 1507 1506 1506 1504 1503 1502 1501 1499 1498 1497 1495 1493 1492 1490 1488 1486 1485 1483 1481 1479 1476 1473 1471 1468 1465 1463 1461 1460 1459 1458 1456 1455 1453 1451 1449 1446 1443 1440 1438 1435 1432 1429 1426 1423 1419 1415 1411 1407 1403 1399
1515 1515 1515 1515 1515 1515 1515 1515 1515 1516 1516 1516 1517 1518 1518 1518 1518 1518 1518 1517 1517 1517 1516 1515 1515 1515 1514 1514 1513 1512 1512 1511 1510 1509 1508 1507 1506 1505 1504 1503 1502 1501 1499 1498 1497 1495 1493 1492 1490 1488 1486 1485 1483 1481 1479 1476 1473 1471 1467 1464 1462 1460 1459 1458 1457 1456 1454 1452 1450 1448 1445 1442 1439 1437 1434 1431 1429 1426 1422 1419 1415 1411 1406 1402 1398
1515 1515 1514 1514 1515 1515 1515 1515 1515 1515 1515 1516 1516 1517 1518 1518 1518 1518 1518 1517 1517 1517 1516 1515 1515 1514 1514 1513 1513 1512 1512 1511 1510 1509 1508 1507 1506 1505 1504 1502 1501 1500 1499 1498 1497 1495 1493 1492 1490 1488 1486 1485 1483 1481 1479 1476 1473 1470 1467 1464 1462 1460 1458 1458 1457 1455 1453 1451 1449 1447 1444 1441 1439 1436 1433 1431 1428 1425 1422 1418 1415 1411 1406 1402 1398
1514 1514 1514 1514 1514 1514 1514 1514 1515 1515 1514 1515 1515 1515 1516 1517 1517 1517 1517 1517 1516 1516 1516 1515 1514 1514 1513 1513 1512 1512 1511 1511 1510 1509 1508 1507 1506 1505 1504 1502 1501 1500 1499 1498 1497 1495 1493 1492 1490 1488 1487 1485 1483 1481 1479 1476 1473 1470 1467 1463 1461 1459 1458 1457 1456 1454 1451 1450 1448 1446 1443 1440 1438 1435 1433 1430 1428 1425 1421 1418 1415 1411 1407 1402 1398
1514 1514 1514 1513 1514 1514 1514 1514 1514 1514 1514 1514 1514 1514 1514 1514 1515 1515 1516 1517 1516 1516 1515 1515 1514 1514 1513 1513 1512 1511 1511 1511 1510 1509 1508 1507 1505 1504 1503 1502 1501 1500 1499 1498 1496 1495 1494 1492 1490 1488 1487 1485 1483 1482 1479 1477 1474 1470 1467 1464 1461 1459 1457 1456 1454 1452 1450 1449 1447 1445 1442 1440 1437 1435 1432 1430 1428 1425 1421 1418 1415 1411 1407 1403 1398
1514 1514 1513 1513 1513 1513 1513 1514 1514 1514 1513 1513 1513 1513 1513 1513 1514 1514 1514 1515 1515 1515 1515 1514 1514 1514 1513 1513 1512 1511 1510 1510 1510 1509 1508 1507 1505 1504 1503 1502 1501 1500 1499 1498 1497 1495 1494 1492 1490 1489 1487 1485 1483 1481 1480 1478 1475 1472 1468 1465 1462 1459 1457 1456 1453 1450 1449 1448 1446 1444 1441 1439 1437 1434 1432 1430 1427 1425 1422 1418 1415 1412 1408 1403 1399
1513 1514 1513 1513 1513 1513 1513 1513 1513 1513 1513 1513 1513 1513 1513 1513 1513 1513 1513 1514 1514 1515 1515 1515 1514 1513 1513 1512 1512 1511 1510 1510 1509 1508 1507 1506 1505 1504 1503 1502 1501 1500 1498 1498 1497 1495 1494 1492 1490 1488 1487 1485 1483 1482 1480 1478 1476 1474 1471 1468 1464 1461 1459 1457 1453 1450 1448 1447 1445 1443 1442 1439 1437 1434 1433 1430 1427 1425 1422 1418 1415 1412 1408 1404 1400
1513 1513 1513 1513 1513 1513 1513 1513 1513 1513 1513 1512 1512 1512 1512 1513 1513 1513 1514 1514 1515 1515 1514 1514 1513 1513 1512 1512 1511 1511 1510 1509 1508 1508 1507 1505 1504 1503 1502 1501 1501 1500 1498 1497 1496 1495 1493 1492 1490 1488 1487 1485 1483 1481 1480 1478 1477 1475 1473 1471 1469 1466 1463 1459 1456 1451 1447 1447 1446 1444 1442 1439 1437 1434 1433 1430 1427 1425 1422 1419 1416 1412 1409 1405 1401
1513 1513 1513 1513 1513 1513 1513 1513 1513 1513 1512 1512 1512 1512 1512 1512 1513 1513 1514 1514 1514 1514 1513 1512 1512 1512 1511 1511 1511 1510 1509 1509 1508 1507 1506 1505 1504 1503 1502 1501 1500 1500 1498 1497 1496 1494 1493 1491 1489 1488 1486 1485 1483 1481 1480 1478 1476 1475 1473 1472 1470 1469 1466 1463 1460 1456 1450 1446 1445 1443 1441 1439 1437 1435 1433 1430 1428 1425 1423 1420 1416 1413 1409 1405 1401
1513 1513 1513 1513 1513 1513 1512 1512 1512 1512 1512 1512 1512 1512 1512 1512 1512 1512 1513 1513 1513 1513 1512 1511 1511 1510 1510 1510 1510 1510 1510 1509 1507 1506 1505 1504 1503 1502 1502 1501 1500 1499 1498 1497 1495 1494 1492 1491 1489 1487 1486 1484 1483 1481 1480 1478 1476 1475 1473 1471 1469 1468 1466 1464 1462 1459 1455 1450 1446 1443 1440 1438 1436 1435 1433 1430 1428 1425 1423 1420 1416 1413 1410 1406 1402
1512 1512 1512 1512 1512 1512 1512 1512 1511 1512 1511 1511 1511 1511 1511 1511 1511 1512 1512 1512 1512 1512 1512 1511 1510 1510 1509 1510 1509 1509 1509 1508 1506 1505 1504 1503 1502 1501 1501 1501 1500 1498 1497 1496 1495 1493 1491 1490 1489 1487 1486 1484 1483 1481 1480 1478 1476 1475 1472 1471 1469 1467 1465 1463 1461 1459 1457 1453 1448 1444 1440 1437 1435 1433 1432 1430 1428 1425 1423 1420 1417 1414 1411 1407 1403
1511 1512 1512 1512 1512 1512 1512 1511 1511 1511 1511 1511 1511 1511 1511 1511 1511 1511 1511 1512 1511 1511 1511 1510 1510 1509 1509 1509 1508 1508 1507 1506 1505 1503 1502 1502 1501 1501 1500 1500 1498 1497 1495 1494 1493 1492 1491 1490 1488 1487 1485 1484 1483 1481 1480 1478 1476 1475 1473 1470 1469 1467 1464 1462 1461 1458 1456 1453 1449 1445 1441 1438 1435 1432 1431 1430 1428 1425 1424 1421 1417 1414 1411 1408 1404
1510 1511 1511 1511 1512 1511 1511 1511 1511 1511 1510 1511 1511 1510 1510 1510 1510 1510 1510 1510 1510 1510 1510 1510 1510 1509 1508 1508 1507 1506 1506 1505 1503 1502 1502 1501 1500 1500 1499 1498 1497 1496 1494 1493 1492 1491 1490 1489 1488 1487 1485 1484 1483 1481 1480 1478 1476 1475 1473 1471 1469 1467 1465 1463 1460 1458 1456 1453 1449 1445 1442 1439 1436 1433 1431 1429 1428 1426 1424 1421 1418 1415 1412 1409 1405